Date,TemperatureHighF,TemperatureAvgF,TemperatureLowF,DewpointHighF,DewpointAvgF,DewpointLowF,HumidityHigh,HumidityAvg,HumidityLow,PressureMaxIn,PressureMinIn,WindSpeedMaxMPH,WindSpeedAvgMPH,GustSpeedMaxMPH,PrecipitationSumIn
2013-3-1,41,39,37,37,33,30,95,80,65,0.00,40.00,16,10,20,0.00
2013-3-2,38,36,34,30,27,26,74,69,65,0.00,40.00,18,14,22,0.00
2013-3-3,35,33,30,26,23,21,74,68,59,0.00,40.00,20,16,25,0.00
2013-3-4,39,34,30,27,23,20,69,64,56,0.00,40.00,27,21,38,0.00
2013-3-5,40,36,33,33,28,24,83,71,63,0.00,40.00,25,11,31,0.00
2013-3-6,40,38,37,35,33,31,91,82,73,0.00,40.00,31,23,47,0.00
2013-3-7,38,35,33,33,31,29,98,85,69,0.00,40.00,31,24,40,0.00
2013-3-8,40,35,32,37,32,27,100,90,60,0.00,40.00,22,18,27,0.00
2013-3-9,47,40,37,35,29,26,90,64,45,0.00,40.00,22,12,29,0.00
2013-3-10,39,37,35,35,32,30,90,83,76,0.00,40.00,11,8,16,0.00
2013-3-11,43,39,36,41,37,34,96,92,86,0.00,40.00,11,5,13,0.00
2013-3-12,49,45,40,49,43,39,100,95,88,0.00,40.00,27,14,34,0.00
2013-3-13,43,40,38,41,33,30,100,76,60,0.00,40.00,16,11,22,0.00
2013-3-14,41,34,30,32,20,13,76,57,47,0.00,40.00,27,20,34,0.00
2013-3-15,40,35,30,33,20,12,75,56,45,0.00,40.00,22,17,29,0.00
2013-3-16,40,35,31,31,24,13,92,65,40,0.00,40.00,22,11,29,0.00
2013-3-17,36,34,30,30,18,11,84,53,36,0.00,40.00,20,15,25,0.00
2013-3-18,36,31,27,32,16,9,93,53,38,0.00,40.00,27,17,31,0.00
2013-3-19,38,36,34,36,35,31,97,92,86,0.00,40.00,31,22,43,0.00
2013-3-20,40,36,34,33,26,20,88,64,51,0.00,40.00,27,17,34,0.00
2013-3-21,39,34,30,32,26,18,90,72,55,0.00,40.00,16,10,22,0.00
2013-3-22,39,34,31,26,20,15,63,56,47,0.00,40.00,25,18,29,0.00
2013-3-23,42,38,35,27,25,21,65,59,48,0.00,40.00,22,20,29,0.00
2013-3-24,40,38,35,32,26,21,77,63,50,0.00,40.00,20,13,27,0.00
2013-3-25,42,38,36,33,31,26,87,73,52,0.00,40.00,25,17,31,0.00
2013-3-26,44,40,38,35,31,28,83,70,53,0.00,40.00,18,10,25,0.00
2013-3-27,46,40,37,33,30,26,75,66,51,0.00,40.00,18,12,22,0.00
2013-3-28,43,41,39,36,33,31,84,74,65,0.00,40.00,16,10,18,0.00
2013-3-29,45,42,40,36,34,32,87,72,59,0.00,40.00,16,11,20,0.00
2013-3-30,46,42,39,36,34,32,83,74,59,0.00,40.00,13,10,16,0.00
2013-3-31,47,42,38,41,36,-100,95,82,55,0.00,40.00,18,6,22,0.00